RH
53 55 56 58 59 61 62 62 62 62 63 63 62 62 63 64 64 63 63 64 66 68 70 70 69 65 59 56 55 51 48 46 45 45 45 43 42 44 50 54 55 55
52 54 57 58 60 60 61 62 62 63 63 64 63 63 63 63 64 65 66 68 70 73 74 74 73 69 63 61 61 57 52 50 48 48 48 47 45 44 48 53 56 56
54 56 57 58 60 61 62 63 65 66 67 67 67 68 68 67 69 69 69 69 72 75 77 77 75 71 64 60 61 58 54 53 51 50 51 50 48 47 49 53 57 57
58 61 62 62 62 63 65 66 67 69 70 70 70 71 71 71 72 71 70 69 70 71 72 74 74 72 67 61 58 57 55 53 53 53 53 53 52 50 51 54 58 60
62 66 69 70 69 70 71 70 71 71 72 72 72 73 73 72 71 70 69 69 69 67 66 67 68 70 69 64 58 57 56 55 54 54 55 56 55 54 53 55 58 61
64 68 71 72 72 73 72 72 72 72 73 73 71 70 68 66 65 66 68 68 67 65 63 63 63 65 69 68 63 58 57 56 55 55 56 57 57 56 56 56 58 60
63 65 67 68 68 68 68 69 70 70 70 67 63 60 58 55 56 59 61 63 62 61 61 61 61 62 66 68 66 60 57 57 57 56 58 60 59 58 58 58 58 59
59 59 60 60 59 59 60 61 62 62 61 57 53 51 50 49 49 52 55 57 58 59 59 59 60 61 63 65 65 62 59 58 58 58 60 62 62 60 59 59 60 60
52 51 51 51 50 50 50 50 50 50 50 49 48 49 48 48 48 51 53 55 57 57 58 58 59 60 61 62 64 65 63 61 60 61 62 64 65 64 62 62 63 64
51 51 51 49 49 48 47 48 47 47 48 47 48 49 49 49 49 50 53 55 56 57 57 58 58 59 61 62 64 67 68 67 65 64 64 65 66 67 66 66 66 67
53 53 53 52 52 51 50 50 50 50 51 51 51 53 52 52 51 52 54 55 56 58 58 58 59 61 62 64 67 70 72 73 72 70 68 68 69 70 69 69 69 69
54 54 55 55 56 55 55 54 54 54 54 55 56 56 55 55 55 55 56 57 58 60 61 62 63 63 64 65 67 70 73 75 75 74 72 71 72 72 71 71 70 69
56 56 57 57 57 58 58 59 58 59 58 59 60 60 60 61 60 59 59 59 60 61 63 66 66 66 66 67 68 70 71 73 73 74 73 72 72 72 72 72 72 71
60 61 60 59 59 60 60 62 63 64 64 64 64 64 65 66 65 65 64 63 63 64 66 68 68 68 68 69 71 72 72 73 74 73 73 73 72 73 73 74 74 73
68 67 65 63 62 61 61 62 63 65 67 68 69 70 70 71 71 70 69 68 68 69 71 71 70 70 70 72 73 73 74 75 75 74 73 72 72 72 72 73 74 75
74 74 71 67 64 62 61 61 62 64 65 67 70 73 75 76 76 75 74 73 74 75 76 76 75 75 75 76 76 76 78 78 77 76 74 73 72 70 70 72 73 74
77 76 73 68 64 61 59 60 62 65 67 69 71 73 75 76 77 76 77 78 79 79 79 79 79 80 80 80 79 79 80 82 82 80 78 76 73 71 70 71 72 74
74 72 68 65 64 63 62 61 62 65 68 71 73 75 76 76 75 75 77 78 79 79 80 81 82 83 83 83 83 82 83 84 85 83 81 79 77 75 74 73 73 74
68 67 65 64 65 65 65 66 67 68 70 73 74 76 77 77 77 78 79 79 79 79 79 81 82 83 84 85 85 86 87 88 86 85 82 80 78 77 77 77 76 76
59 60 59 60 60 61 63 65 67 69 72 76 77 77 77 76 77 79 80 81 81 80 79 80 81 82 84 85 86 88 92 93 91 88 84 82 80 79 79 79 80 80
53 53 54 55 56 59 61 62 65 67 70 74 78 79 80 79 78 78 79 80 81 82 81 80 79 80 82 84 86 89 92 94 93 90 86 84 82 82 82 82 82 84
50 49 49 49 50 51 53 55 57 60 62 67 70 73 76 78 79 79 79 79 80 81 82 81 81 82 83 84 87 89 92 93 92 90 88 87 86 85 85 86 86 87
41 39 36 35 34 34 35 36 38 41 44 49 53 55 59 63 67 69 70 71 72 74 76 77 77 80 83 84 86 89 92 94 94 93 91 90 90 89 89 88 89 89
30 28 26 25 24 24 25 25 27 29 32 36 41 43 47 51 55 58 60 62 64 65 68 70 72 75 79 81 82 85 88 90 92 93 91 91 93 95 94 92 91 92
24 24 24 24 24 24 25 25 26 28 30 33 36 39 42 44 48 51 53 56 60 61 63 66 69 74 79 80 79 80 82 83 85 86 86 87 92 96 98 98 97 96
24 24 24 25 25 25 26 27 28 29 30 32 35 38 40 43 45 47 48 50 54 58 61 63 67 73 79 81 80 80 80 81 82 82 82 83 87 91 95 99 100 99